Houghton, MI

2:15 PM EDT on August 21, 2017 (GMT -0400)
Houghton County Memorial

Weather History for KCMX - April, 2014

Change the Weather History Date:

Wednesday, April 30, 2014

  Actual Average Record
Temperature  
Mean Temperature 38 °F -  
Max Temperature 42 °F 54 °F 81 °F (2001)
Min Temperature 35 °F 35 °F 26 °F (1961)
Degree Days  
Heating Degree Days 26    
Moisture  
Dew Point 37 °F    
Average Humidity 96    
Maximum Humidity 100    
Minimum Humidity 92    
Precipitation  
Precipitation 0.07 in - - ()
Sea Level Pressure  
Sea Level Pressure 29.74 in    
Wind  
Wind Speed 9 mph (East)    
Max Wind Speed 13 mph    
Max Gust Speed 18 mph    
Averages and records for this station are not official NWS values.
T = Trace of Precipitation, MM = Missing Value Source: NWS Daily Summary

Daily Weather History Graph

Daily Weather History Graph

Search for Another Location

Airport or City:

Trip Planner

Search our weather history database for the weather conditions in past years. The results will help you decide how hot, cold, wet, or windy it might be!

Date:

Astronomy

Apr. 30, 2014 Rise Set
Actual Time 6:39 AM EDT 9:03 PM EDT
Civil Twilight 6:05 AM EDT 9:37 PM EDT
Nautical Twilight 5:23 AM EDT 10:20 PM EDT
Astronomical Twilight 4:35 AM EDT 11:09 PM EDT
Moon 7:38 AM EDT (4/30) 10:45 PM EDT (4/30)
Length of Visible Light 15h 31m
Length of Day
14h 24m
New Moon, 2% of the Moon is Illuminated
Apr 30
New Moon
May 6
First Quarter
May 14
Full
May 21
Last Quarter
May 28
New

Hourly Weather History & Observations

Time (EDT) Temp. Windchill Dew Point Humidity Pressure Visibility Wind Dir Wind Speed Gust Speed Precip Events Conditions
12:53 AM 35.1 °F 26.9 °F 33.1 °F 92% 29.76 in 0.2 mi East 11.5 mph - N/A Fog Fog
1:53 AM 35.1 °F 28.6 °F 34.0 °F 96% 29.75 in 0.2 mi East 8.1 mph - N/A Fog Fog
2:41 AM 35.6 °F 28.6 °F 33.8 °F 93% 29.72 in 0.2 mi East 9.2 mph - 0.01 in Fog , Rain Light Rain
2:53 AM 36.0 °F 28.5 °F 34.0 °F 93% 29.75 in 0.2 mi East 10.4 mph - 0.01 in Fog Fog
3:12 AM 35.6 °F 27.5 °F 33.8 °F 93% 29.71 in 0.2 mi East 11.5 mph - N/A Fog Fog
3:53 AM 36.0 °F 28.0 °F 34.0 °F 93% 29.75 in 0.2 mi East 11.5 mph - N/A Fog Fog
4:31 AM 35.6 °F 27.5 °F 35.6 °F 100% 29.72 in 0.2 mi East 11.5 mph - N/A Fog Fog
4:53 AM 36.0 °F 28.5 °F 34.0 °F 93% 29.75 in 0.5 mi East 10.4 mph - 0.00 in Fog , Rain Light Rain
5:08 AM 35.6 °F 29.2 °F 33.8 °F 93% 29.71 in 1.5 mi East 8.1 mph 18.4 mph 0.01 in Rain Light Rain
5:36 AM 35.6 °F 28.6 °F 35.6 °F 100% 29.71 in 0.5 mi East 9.2 mph - 0.02 in Fog Fog
5:48 AM 35.6 °F 28.0 °F 35.6 °F 100% 29.71 in 0.2 mi East 10.4 mph - 0.02 in Fog Fog
5:53 AM 36.0 °F 28.5 °F 35.1 °F 97% 29.74 in 0.2 mi East 10.4 mph - 0.02 in Fog Fog
6:35 AM 37.4 °F 30.3 °F 35.6 °F 93% 29.71 in 0.2 mi East 10.4 mph - N/A Fog Fog
6:53 AM 37.0 °F 28.9 °F 35.1 °F 93% 29.75 in 0.2 mi East 12.7 mph - N/A Fog Fog
7:53 AM 35.1 °F 26.9 °F 34.0 °F 96% 29.77 in 0.2 mi East 11.5 mph - N/A Fog Fog
8:53 AM 36.0 °F 28.5 °F 35.1 °F 97% 29.76 in 0.2 mi East 10.4 mph - N/A Fog Fog
9:44 AM 35.6 °F 28.0 °F 35.6 °F 100% 29.73 in 0.2 mi East 10.4 mph - N/A Fog Fog
9:51 AM 35.6 °F 28.6 °F 35.6 °F 100% 29.73 in 0.2 mi East 9.2 mph - 0.00 in Fog Fog
9:53 AM 36.0 °F 29.0 °F 35.1 °F 97% 29.76 in 0.2 mi East 9.2 mph - 0.00 in Fog Fog
10:53 AM 37.4 °F 31.4 °F 37.4 °F 100% 29.73 in 0.5 mi ENE 8.1 mph - N/A Fog , Rain Light Rain
11:03 AM 37.4 °F 31.4 °F 37.4 °F 100% 29.73 in 0.2 mi East 8.1 mph - 0.01 in Fog , Rain Light Rain
11:53 AM 39.0 °F 33.4 °F 39.0 °F 100% 29.76 in 0.2 mi East 8.1 mph - 0.04 in Fog , Rain Light Rain
12:00 PM 39.2 °F 32.5 °F 37.4 °F 93% 29.72 in 0.2 mi East 10.4 mph - 0.00 in Fog , Rain Light Rain
12:14 PM 39.2 °F 33.0 °F 39.2 °F 100% 29.72 in 0.2 mi East 9.2 mph - 0.00 in Fog Fog
12:53 PM 39.9 °F 33.9 °F 39.9 °F 100% 29.75 in 0.2 mi East 9.2 mph - 0.00 in Fog Fog
1:53 PM 42.1 °F 37.1 °F 42.1 °F 100% 29.75 in 0.2 mi ESE 8.1 mph - N/A Fog Fog
2:05 PM 42.8 °F 37.5 °F 42.8 °F 100% 29.73 in 0.2 mi ESE 9.2 mph - N/A Fog Fog
2:53 PM 39.9 °F 35.1 °F 39.9 °F 100% 29.76 in 0.2 mi East 6.9 mph - N/A Fog Fog
3:20 PM 39.2 °F 34.2 °F 39.2 °F 100% 29.72 in 0.2 mi ENE 6.9 mph - N/A Fog Fog
3:53 PM 41.0 °F 35.2 °F 39.0 °F 93% 29.75 in 0.2 mi East 9.2 mph - N/A Fog Fog
4:22 PM 39.2 °F 34.2 °F 39.2 °F 100% 29.73 in 0.2 mi ESE 6.9 mph - 0.00 in Fog Fog
4:53 PM 39.0 °F 35.7 °F 37.9 °F 96% 29.75 in 0.2 mi ENE 4.6 mph - 0.00 in Fog Fog
5:09 PM 39.2 °F 35.9 °F 39.2 °F 100% 29.72 in 0.2 mi ENE 4.6 mph - N/A Fog Fog
5:50 PM 39.2 °F 35.0 °F 37.4 °F 93% 29.71 in 0.2 mi East 5.8 mph - N/A Fog Fog
5:53 PM 39.0 °F 35.7 °F 37.9 °F 96% 29.74 in 0.2 mi ESE 4.6 mph - N/A Fog Fog
6:53 PM 39.0 °F 35.7 °F 37.0 °F 93% 29.74 in 0.2 mi SE 4.6 mph - N/A Fog Fog
7:53 PM 37.9 °F - 37.0 °F 97% 29.75 in 0.2 mi Calm Calm - N/A Fog Fog
8:53 PM 37.9 °F 35.5 °F 37.0 °F 97% 29.73 in 0.2 mi ESE 3.5 mph - N/A Fog Fog
9:53 PM 37.0 °F 34.5 °F 35.1 °F 93% 29.75 in 0.2 mi ESE 3.5 mph - N/A Fog Fog
10:41 PM 35.6 °F 32.8 °F 33.8 °F 93% 29.71 in 0.2 mi NNE 3.5 mph - N/A Fog Fog
10:53 PM 37.0 °F - 35.1 °F 93% 29.75 in 0.2 mi Calm Calm - N/A Fog Fog
11:53 PM 37.0 °F 33.3 °F 35.1 °F 93% 29.73 in 0.5 mi ENE 4.6 mph - N/A Fog Fog